Location: Mohawk View
(42.7837°N, 73.7885°W)
Time: 13:02:45
(UTC+00:00)

ATLAS 5 CENTAUR R/B - Pass Details

Date: 17 June 2021
Orbit: 510 x 1148 km, 63.4° (Epoch: 23 July)

Event Time Altitude Azimuth Distance (km) Brightness Sun altitude
Exits shadow 06:48:59 27° 145° (SE) 1,047 2.5 -18.9°
Maximum altitude 06:49:59 31° 116° (ESE) 966 2.5 -18.8°
Drops below altitude 10° 06:53:41 10° 54° (NE) 1,900 5.0 -18.5°
Sets 06:56:15 0° 44° (NE) 2,892 6.5 -18.3°
